Terug naar catalogus

ARIANE 44L+ DEB

LostGTO
NORAD 34178·DEBRIS·🇫🇷 France

Gelanceerd Apr 15, 1992 vanaf Guiana Space Centre

Loading…

TLE

VerouderdSource: Space-Track

Epoch: Oct 24, 2025, 10:10 UTC

1 34178U 92021U   25297.42424550 -.00000282  00000-0 -16992-1 0  9990
2 34178   3.9892  41.8515 7033344  47.7735   1.3562  2.24488068162656

Volg ARIANE 44L+ DEB in realtime met AllMySat

Download on the App Store